This demonstration page uses our WeatherBlox Daily Observations layout. Learn more.

Left ArrowRight Arrow

41.86663, -103.66717

Hourly Observations for June 3, 2020

Temp ( °F °C ) Dew Point ( °F °C ) Humidity (%) Winds ( mph kmh ) Pressure ( in mb ) Visibility ( mi km ) Precip ( " mm )
12:53 am 00:53 Clear 64 17.8 59 15 84 84 SE 6 9 29.95 1014 10 16 0.00 0.00
1:53 am 01:53 Clear 61 16.1 58 14.4 90 90 Calm 29.96 1015 10 16 0.00 0.00
2:53 am 02:53 Clear 61 16.1 57 13.9 87 87 Calm 29.95 1014 10 16 0.00 0.00
3:53 am 03:53 Clear 60 15.6 57 13.9 90 90 E 8 13 29.93 1014 10 16 0.00 0.00
4:53 am 04:53 Mostly Clear 61 16.1 57 13.9 87 87 undefined N/A 29.93 1014 10 16 0.00 0.00
5:53 am 05:53 Mostly Sunny 62 16.7 57 13.9 84 84 E 6 9 29.92 1013 10 16 0.00 0.00
6:53 am 06:53 Sunny 63 17.2 57 13.9 81 81 ESE 8 13 29.93 1014 10 16 0.00 0.00
7:53 am 07:53 Sunny 67 19.4 58 14.4 73 73 SSE 8 13 29.92 1013 10 16 0.00 0.00
8:53 am 08:53 Sunny 75 23.9 59 15 58 58 S 12 19 29.91 1013 10 16 0.00 0.00
9:53 am 09:53 Sunny 80 26.7 56 13.3 44 44 W 8 13 29.89 1012 10 16 0.00 0.00
10:53 am 10:53 Sunny 83 28.3 52 11.1 34 34 W 9 15 29.87 1012 10 16 0.00 0.00
11:53 am 11:53 Sunny 87 30.6 52 11.1 30 30 W 10 17 29.85 1011 10 16 0.00 0.00
12:53 pm 12:53 Sunny 88 31.1 46 7.8 23 23 W 8 13 29.83 1010 10 16 0.00 0.00
1:53 pm 13:53 Sunny 91 32.8 45 7.2 20 20 VRB 5 7 29.79 1009 10 16 0.00 0.00
2:09 pm 14:09 Sunny with Nearby Thunderstorms 91 32.8 46 7.8 21 21 NNW 14 22 29.58 1002 10 16 0.00 0.00
2:25 pm 14:25 Mostly Sunny 89 31.7 46 7.8 23 23 N 21 33 29.60 1002 10 16 0.00 0.00
2:53 pm 14:53 Sunny 91 32.8 43 6.1 19 19 NW 16 26 29.78 1008 10 16 0.00 0.00
3:53 pm 15:53 Hazy 88 31.1 39 3.9 18 18 NW 33 54 29.78 1009 6 10 0.00 0.00
4:53 pm 16:53 Sunny 85 29.4 40 4.4 20 20 WNW 16 26 29.79 1009 10 16 0.00 0.00
5:53 pm 17:53 Mostly Cloudy 85 29.4 42 5.6 22 22 W 8 13 29.79 1009 10 16 0.00 0.00
6:53 pm 18:53 Sunny 81 27.2 43 6.1 26 26 W 10 17 29.77 1008 10 16 0.00 0.00
7:53 pm 19:53 Sunny 80 26.7 42 5.6 26 26 WSW 17 28 29.76 1008 10 16 0.00 0.00
8:53 pm 20:53 Clear 72 22.2 44 6.7 37 37 W 8 13 29.76 1008 10 16 0.00 0.00
9:53 pm 21:53 Clear 64 17.8 47 8.3 54 54 NNE 8 13 29.78 1009 10 16 0.00 0.00
10:53 pm 22:53 Clear 64 17.8 48 8.9 56 56 N 8 13 29.78 1009 10 16 0.00 0.00
11:53 pm 23:53 Clear 60 15.6 48 8.9 65 65 W 6 9 29.79 1009 10 16 0.00 0.00

Powered by AerisWeather